FENGYUN 1C DEB, 30988

Orbit data source: Space-Track

FENGYUN 1C DEB, 30988 is space debris in SSO originally from a launch on Mon, 10 May 1999 UTC launched from the Taiyaun Space Center, China (TSC). Fengyun 1C debris stems from the Chinese weather satellite Fengyun-1C, which was intentionally destroyed by a Chinese anti-satellite missile in 2007. This event dramatically increased the amount of space debris, with thousands of trackable fragments posing hazards to satellites and human spaceflight. The Fengyun 1C debris cloud has become a focal point in discussions about space sustainability and the need for international regulations to prevent the creation of new debris.

Loading next visibility...
Identifier
30988, 1999-025BCE
Orbit
SSO
Country
Flag of CNCN / PRC
Related business
Manufacturer
Unknown
Mission
Spacecraft
Bus & Motor
Unknown
Mass
Unknown
Launch date (UTC)
1999-05-10 (27 years ago)
Launch vehicle
Unknown
Launch site
Taiyaun Space Center, China (TSC)
Object type
Payload
Rocket body
Debris
Shape & HBR
Unknown shape, 0.1 m
Radar Cross Section
Small (<0.1 m²)

Expand to show TLE details & history
Last TLE update: 7 hours ago

TLE from 7 hours ago
0 FENGYUN 1C DEB
1 30988U 99025BCE 26122.19964625  .00095578  00000-0  16247-2 0  9994
2 30988  98.5507  97.1314 0071353 206.4588 153.3009 15.48226720 16983
Epoch: 2026-05-02T04:47Z
TLE epoch observation values (Epoch: 2026-05-02T04:47:29.435Z)
Latitude
-0.00012°
Longitude
165.1378°
Altitude
468.432 km
Speed
7.608 km/s
True Right ascension
06h 28m 31s
True Declination
0° 00' 00"
Sunlit
Object was in daylight at epoch
Visualization orbit readout
Latitude
Unknown
Longitude
Unknown
Altitude
Unknown
Speed
Unknown
Apparent Right ascension
Unknown
Apparent Declination
Unknown
Sunlit
N/A
Visualization observer readout
Local Sidereal Time
19:12:53
Azimuth
Unknown
Elevation
Unknown
Doppler factor
Unknown
Orbital elements
Apogee altitude
467.394 km
Perigee altitude
370.396 km
Semi-major axis
6,797.032 km
Eccentricity
0.00714
Inclination
98.5507°
RAAN
97.1314°
Arg. of periapsis
206.4588°
True anomaly
153.66536°
Mean anomaly
153.3009°
Eccentric anomaly
153.48342°
Mean motion
3.87315 °/min
Orbital period
92.95 mins
BSTAR
0.0016247
Loading maneuver chart data...
Computing Atmospheric mass density...
Loading historical data...
Loading historical data...
Loading historical data...
Loading historical data...
Loading historical data...
Loading historical data...
Loading historical data...

Documentation

Showing up to 5 results
|